COSMOS 2251 DEB, 34120

Orbit data source: Space-Track

COSMOS 2251 DEB, 34120 is space debris in LEO originally from a launch on Wed, 16 Jun 1993 UTC launched from the Plesetsk Missile And Space Complex (PKMTR). The debris from Iridium 33, an American commercial communications satellite, has been tracked extensively since its accidental collision with the defunct Russian satellite Cosmos 2251 in 2009. This event, occurring at high speed in low Earth orbit (LEO), generated thousands of pieces of space debris, significantly increasing the risk of further collisions. The Iridium 33 debris cloud has impacted space traffic management and orbital debris mitigation strategies, making it a subject of ongoing study in space situational awareness.

Loading next visibility...
Identifier
34120, 1993-036KR
Orbit
LEO
Country
Flag of CISCIS
Related business
Manufacturer
Unknown
Mission
Spacecraft
Bus & Motor
Unknown
Mass
Unknown
Launch date (UTC)
1993-06-16 (33 years ago)
Launch vehicle
Unknown
Launch site
Plesetsk Missile And Space Complex (PKMTR)
Object type
Payload
Rocket body
Debris
Shape & HBR
Unknown shape, 0.2 m
Radar Cross Section
Small (<0.1 m²)

Expand to show TLE details & history
Last TLE update: 10 hours ago

TLE from 10 hours ago
0 COSMOS 2251 DEB
1 34120U 93036KR  25354.02518851  .00000389  00000-0  24884-3 0  9999
2 34120  73.9904 203.6013 0182274  29.6681  88.9860 13.98691535860828
Epoch: 2025-12-20T00:36Z
TLE epoch observation values (Epoch: 2025-12-20T00:36:16.287Z)
Latitude
55.81011°
Longitude
-99.16831°
Altitude
907.325 km
Speed
7.404 km/s
True Right ascension
23h 55m 01s
True Declination
55° 39' 12"
Sunlit
Object was in daylight at epoch
Visualization orbit readout
Latitude
Unknown
Longitude
Unknown
Altitude
Unknown
Speed
Unknown
Apparent Right ascension
Unknown
Apparent Declination
Unknown
Sunlit
N/A
Visualization observer readout
Local Sidereal Time
09:22:44
Azimuth
Unknown
Elevation
Unknown
Doppler factor
Unknown
Orbital elements
Apogee altitude
1,028.586 km
Perigee altitude
763.409 km
Semi-major axis
7,274.135 km
Eccentricity
0.01823
Inclination
73.9904°
RAAN
203.6013°
Arg. of periapsis
29.6681°
True anomaly
91.07476°
Mean anomaly
88.986°
Eccentric anomaly
90.03035°
Mean motion
3.49841 °/min
Orbital period
102.9 mins
BSTAR
0.00024884

Documentation

Showing up to 5 results
|